Location: Kitchener-Waterloo
(43.4500°N, 80.5000°W)
Time: 23:58:13
(UTC-04:00)

Daily predictions for brighter satellites

Satellite Brightness Start Highest point End
(mag) Time Altitude Azimuth Time Altitude Azimuth Time Altitude Azimuth
Cosmos 1331 Rocket 4.5 21:20:27 10° NNW 21:25:37 62° WSW 21:30:41 10° S
PSLV R/B 4.5 21:23:28 10° SE 21:26:07 26° ENE 21:28:47 10° NNE
Aureole 2 Rocket 2.6 21:22:34 10° S 21:26:26 65° ESE 21:29:58 10° NNE
Timation 1 Rocket 4.4 21:21:28 10° NNW 21:27:30 73° ENE 21:33:29 10° SSE
SeaSat 1 3.0 21:25:14 10° SE 21:29:55 45° NE 21:34:37 10° NNW
Cosmos 1302 Rocket 4.1 21:31:19 10° NNW 21:36:35 84° WSW 21:41:50 10° SSE
Cosmos 2237 Rocket 4.4 21:32:29 10° WSW 21:37:28 32° NW 21:42:31 10° N
USA 186 3.8 21:35:55 10° SSW 21:38:11 21° W 21:40:21 10° NW
CZ-2C R/B 2.0 21:37:53 10° SSW 21:40:01 34° W 21:42:12 10° NNW
DEBRIS 3.1 21:37:31 10° WNW 21:43:35 57° SW 21:45:47 12° SE
Cosmos 2278 Rocket 4.5 21:39:45 10° NW 21:43:50 21° W 21:47:55 10° SSW
Cosmos 1461 3.0 21:41:23 10° NW 21:45:43 74° WSW 21:49:44 10° SSE
ATLAS 3B R/B 3.7 21:44:37 10° SSE 21:50:59 29° ESE 21:57:16 10° NE
Tsikada Rocket 4.1 21:46:31 10° S 21:52:51 68° E 21:59:12 10° NNE
ARGOS 4.0 21:51:45 12° SE 21:56:14 35° ENE 22:01:08 10° N
Cosmos 2369 Rocket 3.0 21:51:48 10° NNW 21:57:07 39° ENE 22:01:39 13° ESE
Cosmos 1666 3.7 21:57:04 10° NNW 22:00:50 46° W 22:04:34 10° SSW
Abrixas rocket 4.2 22:01:23 10° W 22:04:01 21° SW 22:06:15 12° S
ERS-1 Rocket 4.1 21:59:30 10° S 22:04:15 42° W 22:09:02 10° NNW
Cosmos 1602 Rocket 3.8 22:00:02 10° SSW 22:04:31 78° W 22:09:01 10° N
SL-16 R/B 3.7 22:00:38 10° SW 22:05:56 40° WNW 22:11:15 10° NNE
Atlas Centaur 2 3.8 22:00:20 10° SW 22:06:42 29° S 22:12:42 13° ESE
USA 234 3.4 22:01:10 12° ESE 22:07:17 74° NE 22:13:51 10° NW
Cosmos 1825 Rocket 4.2 22:05:59 14° SSE 22:09:20 38° E 22:13:27 10° NNE
Envisat 3.2 22:05:57 10° S 22:11:00 71° WSW 22:16:06 10° NNW
MetOp-B 4.1 22:06:59 12° SSE 22:11:55 80° ENE 22:17:17 10° NNW
Cosmos 1812 Rocket 3.6 22:09:43 10° N 22:14:07 80° W 22:18:12 12° S
Cosmos 407 Rocket 4.4 22:11:19 16° SSE 22:14:35 29° E 22:19:03 10° NE
ISS -3.2 22:13:13 10° SW 22:16:24 51° SE 22:19:35 10° ENE
CZ-4 R/B 4.3 22:15:39 10° NNE 22:20:28 47° E 22:24:19 16° S
PSLV R/B 3.6 22:17:18 10° WSW 22:20:43 47° S 22:22:59 19° E
Cosmos 1939 Rocket 4.2 22:17:33 10° SSW 22:21:25 37° W 22:25:18 10° NNW
SL-08 RB Rocket 4.1 22:21:17 20° SE 22:24:07 47° ENE 22:28:28 10° N
H-2A R/B 4.0 22:24:23 10° SSW 22:27:54 25° W 22:31:30 10° NW
Meteor 1-22 Rocket 4.5 22:23:14 10° N 22:28:42 55° ENE 22:32:26 21° SSE
SPOT 5 3.4 22:24:58 11° S 22:29:07 49° W 22:33:20 10° NNW
Cosmos 1953 4.2 22:27:00 10° NNE 22:29:36 16° ENE 22:30:51 15° E
Cosmos 1634 Rocket 4.0 22:23:52 10° N 22:30:03 71° E 22:34:40 19° SSE
Landsat 7 4.5 22:27:37 21° SE 22:30:20 41° ENE 22:34:48 10° N
Lacrosse 5 rocket 4.2 22:27:29 10° WNW 22:30:25 19° NNW 22:33:27 10° NNE
COSMOS 2455 2.8 22:25:38 10° SSW 22:31:38 89° WNW 22:37:42 10° NNE
Cosmos 1515 3.7 22:28:51 12° S 22:32:20 83° W 22:36:14 10° N
USA 245 4.2 22:28:23 16° SSE 22:33:12 89° ENE 22:38:21 10° NNW
USA 81 4.0 22:28:33 10° N 22:33:52 80° E 22:37:42 19° S
Cosmos 1603 4.4 22:29:20 10° SW 22:34:52 57° WNW 22:40:24 10° NNE
Cosmos 1066 Rocket 4.2 22:30:02 13° S 22:35:06 69° E 22:40:54 10° NNE
YAOGAN 6 3.0 22:39:45 22° S 22:42:02 61° W 22:45:45 10° NNW
Terra 2.5 22:43:54 25° ESE 22:46:07 41° ENE 22:50:36 10° N
Cosmos 1992 Rocket 4.2 22:42:00 10° NNW 22:47:11 65° WSW 22:50:30 22° S
Cosmos 1346 Rocket 2.6 22:48:52 28° S 22:50:48 76° E 22:54:44 10° NNE
IGS 5A 4.2 22:51:07 29° ESE 22:52:34 39° ENE 22:56:28 10° N
Cosmos 2279 Rocket 4.1 22:47:12 10° N 22:53:26 64° E 22:56:57 27° SSE
Cosmos 1953 Rocket 3.5 22:52:36 23° S 22:55:18 88° E 22:59:46 10° N
Cosmos 1943 3.2 22:52:34 10° SSW 22:58:15 85° WNW 23:03:59 10° NNE
H-2A R/B 2.1 22:57:40 31° SE 22:59:56 61° ENE 23:04:57 10° N
Cosmos 1943 Rocket 2.6 22:56:45 10° NNW 23:02:09 50° ENE 23:04:49 28° ESE
Geosat 3.9 22:58:02 10° NNE 23:03:04 69° ESE 23:06:36 20° SSW
Cosmos 1842 3.5 23:04:01 42° SE 23:04:46 49° E 23:08:34 10° NNE
Lacrosse 4 Rocket 1.2 23:03:03 26° SSW 23:05:15 77° ESE 23:09:22 10° NNE
SAR-Lupe-2 3.5 23:05:25 50° SE 23:06:12 72° ENE 23:09:48 10° N
SL-24 R/B 4.5 23:01:28 10° N 23:06:22 67° E 23:08:44 32° SSE
Meteor 1-21 4.2 23:03:33 25° S 23:07:04 75° E 23:12:54 10° NNE
SeaSat 1 4.1 23:04:20 14° SSW 23:07:34 26° WSW 23:11:42 10° NW
Cosmos 1190 Rocket 4.2 23:03:10 10° SSW 23:08:24 76° WNW 23:13:45 10° NNE
SPOT 1/Viking Rocket 4.4 23:05:20 18° SSW 23:08:49 44° W 23:13:45 10° NNW
Cosmos-2242 3.2 23:06:02 10° N 23:10:24 58° E 23:11:38 41° SE
Cosmos 1900 4.3 23:07:02 18° SSW 23:10:51 71° ESE 23:15:59 10° NE
Cosmos 2180 Rocket 4.5 23:07:14 10° N 23:13:31 76° E 23:16:42 32° SSE
Cosmos 1758 3.7 23:11:32 10° N 23:15:33 50° ENE 23:16:19 43° ESE
DMSP B5D2-2 4.0 23:18:45 10° NNE 23:24:03 73° ESE 23:26:13 36° S
Cosmos 676 Rocket 4.0 23:21:48 25° SSW 23:25:01 89° WNW 23:30:23 10° NNE
Cosmos 1766 3.7 23:21:26 10° NNW 23:25:23 58° W 23:26:30 41° SSW
Cosmos 1758 Rocket 4.3 23:27:03 23° SW 23:29:30 48° WNW 23:33:45 10° N
Cosmos 1140 Rocket 3.7 23:28:55 42° SE 23:30:05 51° ESE 23:35:10 10° NNE
CARTOSAT-1 3.8 23:31:25 43° SSW 23:32:38 63° W 23:36:56 10° NNW
ARGOS 4.4 23:33:16 18° SSW 23:36:27 33° W 23:41:19 10° NNW
Cosmos 2369 Rocket 3.4 23:36:03 10° NW 23:41:02 33° WSW 23:43:28 23° SSW
ATLAS 3B R/B 3.2 23:33:35 10° SW 23:41:16 70° NW 23:48:46 10° NNE
COSMOS 2487 4.4 23:47:20 20° ENE 23:47:20 20° ENE 23:49:00 10° NE
ALOS 2 4.4 23:46:16 19° E 23:47:11 20° ENE 23:50:24 10° NNE
USA 234 4.1 23:48:30 28° SSW 23:50:36 34° SW 23:56:28 10° WNW
ISS -1.3 23:50:01 10° W 23:52:59 30° NNW 23:55:55 10° NE
Cosmos 1470 3.3 23:50:11 10° N 23:53:49 46° ENE 23:53:49 46° ENE
SL-27 R/B 2.8 23:54:51 58° NW 23:54:51 58° NW 23:57:59 10° NNE
